Wind_Speed
9 9 9 10 7 4 8 6 8 9 8 9 11 11 12 15 12 6 5 7 11 13 13 12 12 11 11 11 11 10 10 10 9 8 7 5 4 3 3 2 2 1 0 3 3 4 3 6 9
11 10 10 10 4 6 5 9 8 9 8 9 10 12 11 15 15 13 7 6 7 10 14 16 16 16 14 14 13 12 11 11 11 10 8 7 6 5 5 4 3 3 2 1 2 2 6 9 10
11 11 11 7 7 7 7 9 9 11 11 8 9 11 13 13 15 15 13 12 13 13 12 13 20 21 18 17 16 15 14 14 13 12 10 9 8 7 6 6 5 4 4 3 2 2 2 7 9
13 13 11 7 8 6 8 8 9 9 11 11 8 9 15 17 15 14 14 14 19 21 18 13 12 15 21 22 22 20 18 17 15 14 13 11 10 9 8 7 6 6 5 4 4 4 4 4 6
13 12 12 8 9 8 9 8 9 11 15 14 11 12 12 14 17 18 18 19 18 20 21 17 16 14 16 19 21 22 21 20 18 17 15 15 13 12 11 10 8 8 7 7 6 5 5 4 4
14 13 9 10 10 10 11 9 10 14 15 14 12 13 15 15 16 15 15 15 17 19 22 22 20 19 18 17 20 22 22 21 19 19 18 18 17 14 13 13 12 10 10 8 8 8 7 5 3
11 11 10 8 9 14 11 11 10 12 13 14 14 15 16 16 16 17 18 18 19 19 20 22 25 25 23 21 21 21 22 22 22 21 20 20 19 17 16 15 14 14 13 12 10 10 9 7 5
12 11 11 12 11 11 13 13 14 14 14 16 17 14 16 19 19 19 20 19 18 19 22 25 27 27 31 28 27 25 24 24 22 22 22 22 22 22 20 18 17 17 16 14 13 11 10 10 8
13 10 12 13 14 17 16 16 17 16 14 16 19 20 22 25 26 23 21 21 22 23 24 25 27 29 29 30 33 32 32 31 29 27 25 24 23 24 23 21 20 20 19 17 14 13 12 11 11
12 11 11 14 15 15 16 16 18 19 16 16 20 22 25 26 28 30 27 24 24 26 27 28 27 30 31 31 31 33 33 31 31 30 28 28 27 26 25 23 22 22 21 19 17 16 16 14 13
11 12 11 12 13 16 18 19 22 21 16 19 21 22 24 26 26 27 29 29 26 26 26 30 31 31 33 34 33 33 32 33 31 31 30 29 29 27 27 27 26 24 23 21 20 18 18 18 19
10 11 11 13 14 15 17 19 22 21 20 25 24 25 25 27 27 29 30 32 33 32 29 29 31 32 35 36 37 36 36 35 33 31 29 28 28 28 28 28 27 25 24 23 23 20 20 20 21
8 9 11 13 14 17 18 19 23 20 24 24 26 27 27 29 30 32 33 33 34 36 35 33 34 34 34 38 39 40 40 39 39 37 35 34 32 32 31 28 27 26 24 22 22 20 21 21 21
8 10 12 13 15 17 19 20 24 23 23 25 25 25 27 31 34 36 36 36 35 34 35 37 37 36 37 38 40 42 43 42 40 40 38 37 36 33 32 30 29 29 27 25 23 24 23 22 22
9 10 13 15 15 18 22 20 23 21 20 19 22 23 25 30 32 34 35 35 34 33 32 33 33 34 34 36 40 41 45 45 44 41 39 38 39 38 35 33 31 28 25 24 24 22 23 24 24
10 12 12 13 18 20 21 22 16 20 24 26 25 26 29 30 31 33 35 36 36 37 36 36 37 37 37 38 35 36 42 45 47 46 38 41 39 41 39 35 33 30 27 25 25 25 27 27 27
9 10 13 13 16 20 21 22 8 20 25 26 26 26 26 26 26 27 29 32 35 37 38 38 39 39 39 39 39 41 38 42 46 47 48 49 44 41 36 36 34 33 29 26 26 27 26 24 24
6 8 11 15 19 23 23 25 18 18 23 23 19 20 21 21 23 26 29 34 39 42 44 45 44 44 43 41 41 40 41 39 40 45 46 49 50 40 37 38 33 32 29 28 27 26 26 26 27
7 11 15 16 21 24 26 25 17 12 9 12 14 19 22 24 27 30 32 32 34 36 39 42 47 47 47 42 42 43 42 41 39 38 43 46 47 45 39 38 33 31 30 31 30 29 29 29 29
10 12 14 14 16 28 20 15 5 5 6 10 18 24 25 24 24 24 25 26 31 34 36 38 39 41 43 43 41 43 43 39 38 35 35 42 44 47 39 40 36 35 32 32 32 31 31 30 30
10 10 13 19 25 13 16 3 7 9 13 16 18 20 21 24 25 26 24 26 25 27 31 34 37 41 43 44 42 40 41 39 36 33 33 35 43 47 47 37 43 35 34 36 32 33 33 32 31
9 12 17 21 17 7 11 7 3 13 17 18 21 22 23 25 25 22 27 28 31 32 30 29 30 31 33 34 40 38 38 38 34 32 31 32 40 45 39 39 39 38 32 29 36 34 35 35 33
8 15 19 12 11 12 4 5 4 11 16 21 20 20 22 23 22 25 31 34 36 33 31 25 24 22 23 22 29 31 30 31 33 32 30 34 38 43 37 38 42 33 31 35 34 35 36 35 37
13 15 9 9 8 3 2 5 5 7 18 20 20 20 22 23 24 25 30 30 34 34 33 27 22 19 15 14 19 25 28 22 25 26 30 33 33 37 34 31 34 35 35 29 35 33 33 35 38
12 15 4 3 2 4 6 8 3 10 15 19 20 20 22 24 24 26 30 31 34 34 31 29 23 20 14 11 9 7 10 15 18 23 26 29 31 34 24 34 30 29 31 37 35 33 35 40 43
8 10 3 3 2 5 12 8 2 7 11 18 20 20 20 23 25 26 28 29 31 32 31 29 22 19 14 9 6 6 9 10 13 17 24 27 31 33 33 26 25 26 30 37 33 35 36 44 44
4 3 5 3 6 6 6 10 9 4 11 17 20 19 19 21 23 25 26 27 27 27 29 24 24 19 14 9 6 4 2 5 8 14 19 23 24 28 33 29 20 21 19 26 31 35 41 40 39
6 3 2 2 2 5 8 12 11 8 11 17 21 20 20 21 21 23 23 24 25 25 25 27 23 20 15 11 8 3 3 5 7 11 14 21 21 25 17 16 17 22 25 29 34 39 39 38 38
6 6 3 4 4 3 4 11 10 10 13 18 23 21 20 22 21 20 21 22 22 21 22 21 21 20 15 8 6 5 1 2 7 11 13 17 20 21 23 24 26 29 31 33 35 37 34 36 39
9 11 9 5 5 7 4 18 6 10 15 24 27 26 25 22 21 21 20 21 22 20 18 18 17 17 19 9 7 4 1 2 8 11 13 16 20 22 24 25 27 29 31 32 30 27 28 32 38
Wind_Direction
201 201 198 187 194 184 145 152 187 207 213 234 247 243 237 228 222 222 273 261 248 226 219 231 234 238 245 246 248 253 255 253 256 261 257 248 245 241 218 229 258 280 7 56 80 163 167 181 203
208 206 200 204 213 168 158 183 203 219 237 266 255 250 237 231 230 238 268 273 269 255 239 233 233 238 241 244 247 249 257 256 255 261 258 247 244 240 240 242 255 263 278 334 56 164 210 221 242
207 204 203 203 203 169 176 186 215 236 245 250 255 254 251 245 243 245 255 267 265 266 265 256 241 244 242 243 247 247 249 256 255 257 257 241 236 239 247 249 254 260 270 282 316 327 250 233 238
202 194 204 213 166 162 190 204 227 248 259 263 258 251 245 249 252 256 258 262 264 268 272 269 260 246 249 248 249 250 248 249 253 251 253 245 239 236 246 252 256 254 268 274 288 307 313 276 249
199 200 208 185 170 190 201 222 253 265 266 268 259 255 259 256 255 257 260 263 267 264 261 261 260 262 247 250 250 249 251 247 247 250 254 252 245 242 241 251 252 259 268 274 273 283 299 310 284
196 200 201 167 189 208 212 225 260 280 278 279 277 278 272 264 265 268 268 263 260 262 259 259 255 251 248 250 253 251 250 248 249 251 252 254 252 251 247 245 249 251 254 262 271 275 283 294 290
201 211 201 177 206 222 233 244 256 272 275 277 280 278 274 273 271 269 266 263 265 262 262 264 259 254 251 251 248 249 250 248 247 249 251 253 256 255 250 248 252 252 249 256 259 257 267 277 281
205 211 205 195 203 230 240 250 260 264 269 278 275 270 272 265 264 266 267 270 270 269 266 264 263 259 252 253 250 249 250 254 257 256 253 250 251 255 255 254 252 250 253 255 254 249 252 259 265
201 204 204 215 227 241 250 258 266 268 272 275 279 275 275 276 280 279 276 274 274 272 265 264 267 264 259 251 250 252 255 255 255 255 253 254 253 252 252 249 251 253 250 252 255 252 248 254 263
204 214 219 228 239 247 255 260 267 275 278 280 275 275 277 281 286 289 286 279 272 267 266 265 260 264 263 258 252 251 254 253 253 253 256 254 251 251 253 252 249 245 249 253 251 253 256 253 247
216 227 238 243 250 262 272 279 282 286 292 283 278 277 275 277 277 280 282 283 274 266 263 262 261 258 260 261 256 251 250 250 249 253 254 252 250 247 247 252 252 252 252 252 253 252 254 255 252
228 243 254 259 262 267 276 282 282 294 296 293 289 284 284 282 281 279 276 277 279 275 268 261 259 255 254 254 257 254 248 247 248 247 248 246 247 249 252 252 250 250 254 253 253 253 252 254 256
246 255 261 271 278 281 284 287 289 296 288 289 288 291 289 285 282 278 280 276 275 277 277 274 267 261 254 251 251 252 250 247 243 246 245 246 249 251 252 249 250 254 249 248 251 254 256 256 254
266 271 275 280 286 288 288 291 297 296 294 290 287 285 282 280 281 284 284 286 285 282 281 279 271 265 261 254 251 248 247 246 250 242 247 246 246 245 247 249 251 250 250 249 248 251 254 254 257
268 275 286 289 289 296 299 299 300 299 295 291 290 286 285 287 289 290 291 290 289 287 282 277 276 274 266 258 252 250 249 245 241 247 241 246 245 245 246 247 249 249 245 250 253 251 255 256 256
282 285 284 287 294 298 304 308 307 302 307 298 294 292 294 295 294 291 288 288 286 283 279 276 273 271 270 267 262 254 250 250 244 240 247 240 240 243 246 248 247 245 248 253 256 255 257 258 259
282 287 295 301 297 301 306 306 285 303 289 293 296 303 303 299 297 296 297 296 291 287 282 277 274 271 269 266 267 266 255 249 248 245 239 242 242 243 240 245 243 244 248 254 258 259 259 260 264
298 305 303 304 299 300 305 307 313 295 297 308 316 310 307 308 309 304 301 295 291 288 286 284 281 277 274 268 265 261 264 255 249 245 244 242 242 243 242 241 239 240 245 254 254 254 260 267 270
312 309 308 313 305 305 311 311 315 320 332 325 330 337 329 317 312 311 309 304 299 295 289 282 275 272 271 269 264 260 257 258 248 246 244 241 239 239 241 242 239 244 245 250 249 252 259 266 266
319 315 310 315 317 306 312 318 344 22 349 356 349 352 347 343 331 324 317 311 305 302 297 291 285 275 265 261 262 257 252 250 249 246 242 241 235 233 236 237 240 234 242 251 248 252 260 264 267
326 319 318 313 322 329 338 36 39 17 4 353 351 354 354 343 339 334 333 327 319 314 307 297 288 279 269 261 258 253 249 249 246 243 245 239 234 232 236 241 234 234 239 241 249 253 259 262 264
331 326 319 318 318 322 341 300 317 6 360 355 357 351 346 346 342 343 346 343 346 346 333 324 311 297 276 268 254 243 243 246 248 244 240 236 234 228 232 239 242 230 232 234 241 251 257 262 266
330 325 316 305 305 316 344 307 273 345 5 359 352 350 344 343 347 349 350 353 348 341 348 345 340 324 302 285 251 242 245 249 247 245 240 230 230 228 231 232 236 233 232 234 246 252 255 262 270
337 331 310 304 317 317 337 333 273 343 352 354 348 349 346 346 351 348 345 350 352 351 352 349 349 344 330 298 273 252 242 235 243 236 231 223 226 227 234 239 242 252 239 236 244 250 256 261 270
343 347 331 337 343 222 314 282 273 345 342 349 349 348 346 344 345 345 345 357 356 352 350 353 350 349 349 337 310 283 269 245 245 229 220 217 215 217 236 218 248 245 247 249 250 252 260 266 272
340 10 38 237 310 289 278 243 307 326 337 348 349 349 347 341 342 345 347 357 359 3 357 353 352 347 356 3 360 287 247 230 231 230 217 214 213 218 240 257 261 260 242 241 248 261 266 268 274
320 336 342 296 279 297 267 285 321 326 333 346 350 348 346 342 343 342 346 355 358 359 5 356 359 349 337 344 347 11 169 208 210 216 220 218 213 224 239 236 243 266 274 263 264 273 271 277 280
253 280 283 288 8 296 286 285 249 294 315 341 346 346 345 342 342 340 345 351 355 357 0 8 5 357 4 353 346 300 232 203 198 210 216 216 223 239 256 260 263 266 271 280 278 274 276 275 277
238 239 232 269 233 197 300 283 291 290 311 330 334 334 339 337 334 337 344 347 351 355 357 1 10 15 12 5 5 344 341 210 188 192 207 225 236 244 252 259 265 273 277 279 276 278 278 277 277
247 256 248 223 209 226 245 277 244 284 318 327 324 325 330 331 325 334 340 341 345 351 351 352 1 8 23 17 41 36 23 197 200 204 223 235 244 252 258 267 271 273 275 276 272 271 277 282 268
Height
3155 3157 3158 3160 3165 3162 3162 3164 3165 3166 3168 3168 3168 3168 3170 3169 3170 3173 3168 3167 3168 3169 3170 3171 3172 3172 3173 3173 3173 3174 3173 3173 3173 3173 3172 3171 3171 3170 3170 3170 3169 3169 3169 3168 3167 3166 3167 3166 3164
3154 3156 3159 3159 3161 3160 3162 3163 3164 3165 3166 3167 3166 3165 3168 3168 3168 3168 3168 3168 3168 3168 3169 3170 3170 3170 3170 3171 3172 3172 3172 3172 3172 3171 3171 3171 3171 3170 3169 3169 3169 3169 3169 3168 3167 3167 3166 3166 3166
3154 3156 3159 3158 3158 3159 3161 3162 3164 3165 3165 3165 3166 3165 3166 3166 3167 3167 3166 3166 3166 3166 3167 3167 3168 3168 3168 3169 3169 3170 3170 3170 3170 3170 3169 3169 3169 3169 3169 3168 3168 3168 3168 3168 3167 3166 3166 3165 3165
3153 3156 3158 3157 3157 3158 3160 3162 3163 3164 3164 3164 3165 3165 3164 3163 3164 3164 3164 3164 3164 3164 3164 3165 3165 3165 3166 3167 3167 3168 3167 3168 3168 3168 3168 3168 3168 3168 3168 3167 3167 3167 3167 3167 3166 3166 3166 3164 3163
3152 3155 3155 3155 3156 3158 3160 3161 3162 3163 3163 3163 3163 3162 3163 3162 3162 3162 3162 3162 3162 3161 3161 3162 3162 3163 3163 3163 3164 3165 3165 3165 3165 3166 3166 3166 3166 3166 3166 3166 3166 3166 3166 3165 3165 3165 3165 3164 3163
3152 3153 3154 3154 3156 3157 3159 3161 3161 3160 3161 3161 3161 3161 3161 3161 3160 3160 3160 3159 3159 3159 3158 3159 3159 3159 3159 3160 3160 3161 3162 3162 3163 3163 3164 3164 3164 3164 3164 3164 3164 3164 3164 3164 3164 3164 3164 3163 3163
3151 3152 3153 3153 3155 3155 3158 3159 3159 3158 3158 3159 3158 3158 3157 3157 3157 3156 3155 3156 3156 3156 3156 3155 3155 3156 3156 3157 3157 3157 3158 3159 3159 3160 3161 3161 3161 3162 3162 3162 3162 3162 3161 3161 3161 3161 3162 3162 3161
3149 3151 3152 3152 3153 3155 3156 3156 3157 3157 3157 3156 3155 3154 3153 3151 3152 3153 3152 3153 3153 3153 3152 3151 3150 3150 3151 3152 3153 3153 3154 3155 3156 3156 3157 3157 3157 3158 3158 3159 3159 3159 3159 3159 3159 3159 3159 3159 3159
3148 3151 3150 3151 3152 3152 3153 3154 3153 3154 3155 3154 3152 3151 3149 3148 3148 3149 3150 3149 3149 3148 3147 3147 3146 3145 3145 3146 3147 3148 3149 3150 3151 3152 3153 3154 3154 3154 3154 3155 3155 3156 3156 3156 3157 3157 3157 3157 3157
3147 3148 3149 3149 3150 3150 3151 3151 3151 3151 3153 3151 3149 3147 3145 3144 3143 3141 3142 3143 3142 3141 3141 3140 3141 3140 3140 3140 3141 3141 3142 3143 3145 3147 3148 3149 3149 3150 3150 3151 3151 3151 3152 3153 3153 3153 3154 3154 3154
3145 3146 3147 3147 3148 3148 3148 3148 3146 3147 3148 3146 3145 3144 3142 3140 3139 3138 3135 3134 3135 3135 3135 3133 3133 3134 3133 3133 3133 3134 3135 3136 3138 3140 3141 3143 3144 3145 3145 3145 3147 3148 3148 3149 3149 3149 3150 3150 3151
3144 3144 3145 3145 3145 3145 3145 3144 3142 3143 3142 3139 3138 3137 3137 3135 3134 3131 3130 3127 3125 3125 3127 3126 3125 3125 3125 3125 3126 3127 3128 3129 3131 3133 3134 3136 3138 3139 3140 3141 3142 3143 3144 3144 3144 3145 3145 3145 3146
3142 3142 3141 3142 3141 3141 3141 3140 3138 3140 3135 3135 3132 3131 3129 3127 3125 3123 3121 3122 3121 3119 3118 3119 3117 3117 3117 3116 3117 3118 3119 3121 3123 3125 3127 3129 3131 3133 3134 3136 3137 3138 3138 3139 3139 3140 3140 3141 3141
3139 3139 3138 3138 3138 3137 3137 3136 3133 3133 3131 3129 3128 3126 3123 3119 3117 3117 3116 3114 3112 3112 3111 3109 3108 3108 3108 3108 3107 3108 3109 3110 3113 3116 3118 3121 3123 3125 3126 3129 3131 3132 3133 3133 3134 3134 3134 3136 3136
3137 3137 3136 3136 3135 3133 3131 3134 3129 3126 3124 3123 3121 3118 3117 3115 3112 3109 3107 3106 3105 3103 3102 3101 3099 3098 3096 3096 3098 3098 3099 3101 3103 3106 3109 3111 3115 3118 3119 3122 3124 3126 3127 3127 3128 3129 3130 3131 3130
3135 3135 3134 3134 3131 3129 3129 3127 3125 3121 3119 3117 3115 3113 3111 3110 3108 3104 3101 3097 3095 3093 3092 3091 3089 3088 3087 3087 3088 3088 3089 3090 3093 3098 3100 3103 3105 3108 3112 3115 3118 3120 3120 3121 3122 3123 3124 3125 3126
3133 3132 3131 3131 3127 3126 3125 3122 3124 3120 3113 3112 3110 3109 3106 3103 3100 3097 3094 3091 3087 3084 3082 3080 3078 3077 3076 3076 3077 3078 3079 3079 3082 3086 3090 3093 3097 3099 3103 3106 3109 3111 3113 3114 3116 3116 3118 3118 3119
3131 3130 3129 3128 3125 3121 3120 3116 3116 3113 3109 3107 3105 3103 3099 3096 3094 3092 3089 3084 3080 3077 3073 3070 3068 3066 3064 3064 3064 3065 3067 3070 3071 3074 3078 3084 3087 3092 3094 3097 3100 3103 3106 3108 3109 3111 3111 3113 3113
3128 3128 3126 3125 3121 3117 3115 3110 3109 3107 3106 3104 3102 3099 3094 3092 3089 3085 3081 3076 3072 3067 3062 3058 3054 3053 3052 3052 3052 3052 3054 3058 3060 3063 3068 3071 3076 3082 3086 3090 3093 3094 3098 3100 3103 3105 3106 3107 3108
3127 3126 3124 3122 3120 3116 3110 3105 3104 3104 3103 3101 3098 3093 3089 3086 3083 3080 3075 3070 3063 3057 3052 3046 3041 3037 3037 3038 3039 3039 3042 3046 3051 3053 3057 3062 3066 3071 3077 3081 3084 3088 3091 3094 3097 3098 3099 3101 3101
3127 3125 3124 3122 3115 3111 3106 3102 3102 3102 3100 3097 3094 3091 3087 3084 3080 3075 3069 3064 3058 3051 3044 3037 3031 3026 3024 3024 3025 3028 3031 3035 3041 3044 3049 3052 3057 3062 3067 3071 3077 3079 3083 3087 3089 3090 3092 3094 3095
3126 3124 3121 3118 3115 3111 3108 3106 3100 3099 3097 3094 3090 3087 3085 3081 3077 3072 3067 3061 3053 3045 3038 3029 3022 3016 3013 3012 3013 3018 3022 3027 3032 3036 3039 3043 3048 3054 3059 3063 3064 3069 3072 3076 3081 3083 3084 3085 3087
3126 3122 3118 3115 3112 3110 3109 3108 3098 3097 3095 3092 3090 3087 3084 3080 3074 3069 3063 3056 3049 3042 3034 3026 3019 3012 3008 3004 3005 3010 3015 3019 3023 3027 3031 3034 3038 3046 3051 3055 3058 3059 3062 3068 3073 3076 3077 3078 3078
3124 3121 3116 3113 3111 3111 3108 3109 3096 3096 3094 3091 3088 3085 3081 3077 3072 3067 3062 3056 3048 3039 3032 3024 3018 3013 3007 3004 3003 3004 3006 3011 3016 3020 3024 3028 3032 3040 3045 3049 3053 3054 3058 3063 3066 3068 3070 3071 3071
3124 3119 3116 3116 3114 3111 3107 3106 3095 3094 3092 3090 3086 3083 3079 3074 3071 3066 3061 3055 3048 3039 3031 3025 3020 3015 3009 3005 3003 3003 3005 3007 3013 3016 3019 3024 3029 3036 3031 3038 3046 3049 3054 3057 3058 3061 3062 3063 3063
3123 3122 3123 3127 3122 3112 3106 3100 3094 3093 3091 3088 3084 3081 3078 3073 3069 3065 3060 3053 3047 3040 3032 3025 3020 3016 3012 3008 3006 3005 3005 3007 3011 3015 3017 3021 3026 3032 3033 3031 3038 3044 3047 3049 3052 3053 3054 3054 3053
3123 3123 3123 3121 3120 3117 3102 3095 3091 3089 3088 3085 3082 3080 3076 3072 3068 3064 3059 3053 3047 3041 3034 3027 3021 3016 3012 3010 3008 3007 3006 3008 3010 3014 3016 3021 3024 3028 3031 3035 3038 3041 3041 3043 3043 3046 3046 3044 3043
3122 3124 3122 3121 3123 3119 3100 3093 3087 3086 3085 3082 3080 3077 3074 3070 3066 3063 3058 3053 3048 3042 3037 3030 3024 3018 3014 3011 3009 3008 3008 3009 3011 3013 3016 3019 3023 3025 3028 3030 3033 3034 3035 3036 3037 3038 3037 3035 3033
3120 3120 3120 3120 3120 3119 3114 3088 3084 3082 3081 3079 3078 3075 3072 3069 3065 3061 3056 3052 3047 3043 3038 3033 3028 3022 3017 3012 3011 3009 3009 3009 3011 3014 3017 3018 3022 3024 3026 3027 3027 3028 3029 3028 3029 3028 3027 3026 3025
3117 3117 3117 3116 3116 3114 3112 3085 3079 3079 3078 3076 3074 3071 3068 3065 3061 3058 3055 3051 3047 3044 3040 3035 3030 3025 3021 3016 3013 3010 3011 3011 3011 3012 3016 3018 3019 3020 3021 3021 3021 3022 3021 3021 3021 3019 3019 3018 3016